HORS 4 (RS82S)

Last updated on Tue Aug 25 2026 00:03:14 GMT+0000 (Coordinated Universal Time)

1 61754U 24199V 26236.61562072 .00063243 00000+0 60095-3 0 9996 2 61754 97.2791 115.7587 0005319 48.9643 311.2077 15.66661853148333
UTC large
Height (km)
Speed (km/s)
/
Latitude / Longitude
Inclination (degrees)
Orbital Period (minutes)
Azimuth
Elevation
Range (km)
Doppler Factor

Next 0 passes for location: London (51.5072 / 0.1276)

No passes found over London.
HORS 4 (RS82S)